| time (UTC) | temp F | wind direction | speed MPH | gust MPH | rain 1hr in | rain 24hr in | rain mn in | humidity % | barometer mb |
| 20260906164939 | 77 | 163 | 4.0 | 10.0 | 0.00 | 0.00 | 0.00 | 76 | 1018.4 |
| 20260906164440 | 77 | 151 | 4.0 | 10.0 | 0.00 | 0.00 | 0.00 | 77 | 1018.3 |
| 20260906163938 | 77 | 199 | 3.0 | 9.0 | 0.00 | 0.00 | 0.00 | 77 | 1018.4 |
| 20260906163437 | 77 | 145 | 3.0 | 8.0 | 0.00 | 0.00 | 0.00 | 76 | 1018.4 |
| 20260906162937 | 77 | 94 | 3.0 | 8.0 | 0.00 | 0.00 | 0.00 | 78 | 1018.4 |
| 20260906162436 | 76 | 167 | 3.0 | 7.0 | 0.00 | 0.00 | 0.00 | 78 | 1018.4 |
| 20260906161936 | 76 | 163 | 3.0 | 7.0 | 0.00 | 0.00 | 0.00 | 79 | 1018.4 |
| 20260906161436 | 76 | 120 | 3.0 | 8.0 | 0.00 | 0.00 | 0.00 | 79 | 1018.5 |
| 20260906160938 | 76 | 148 | 3.0 | 11.0 | 0.00 | 0.00 | 0.00 | 78 | 1018.5 |
| 20260906160434 | 76 | 148 | 3.0 | 11.0 | 0.00 | 0.00 | 0.00 | 79 | 1018.5 |
| 20260906155934 | 76 | 144 | 4.0 | 10.0 | 0.00 | 0.00 | 0.00 | 79 | 1018.4 |
| 20260906155658 | 76 | 76 | 4.0 | 9.0 | 0.00 | 0.00 | 0.00 | 80 | 1018.4 |
| 20260906154930 | 75 | 158 | 3.0 | 9.0 | 0.00 | 0.00 | 0.00 | 80 | 1018.5 |
| 20260906154429 | 75 | 64 | 3.0 | 9.0 | 0.00 | 0.00 | 0.00 | 80 | 1018.5 |
| 20260906153931 | 75 | 148 | 3.0 | 8.0 | 0.00 | 0.00 | 0.00 | 82 | 1018.5 |
| 20260906153429 | 74 | 161 | 3.0 | 8.0 | 0.00 | 0.00 | 0.00 | 84 | 1018.5 |
| 20260906152930 | 74 | 135 | 4.0 | 9.0 | 0.00 | 0.00 | 0.00 | 84 | 1018.5 |
| 20260906152426 | 74 | 156 | 4.0 | 9.0 | 0.00 | 0.00 | 0.00 | 84 | 1018.7 |
| 20260906151926 | 73 | 144 | 4.0 | 8.0 | 0.00 | 0.00 | 0.00 | 85 | 1018.8 |
| 20260906151426 | 73 | 134 | 4.0 | 8.0 | 0.00 | 0.00 | 0.00 | 86 | 1018.8 |
| 20260906150926 | 73 | 156 | 3.0 | 9.0 | 0.00 | 0.00 | 0.00 | 86 | 1018.8 |
| 20260906150427 | 73 | 149 | 3.0 | 10.0 | 0.00 | 0.00 | 0.00 | 86 | 1018.8 |
| 20260906145926 | 72 | 111 | 4.0 | 12.0 | 0.00 | 0.00 | 0.00 | 86 | 1018.7 |
| 20260906145426 | 72 | 147 | 4.0 | 12.0 | 0.00 | 0.00 | 0.00 | 86 | 1018.6 |
| 20260906144426 | 73 | 130 | 3.0 | 9.0 | 0.00 | 0.00 | 0.00 | 86 | 1018.5 |
| 20260906143926 | 73 | 144 | 4.0 | 9.0 | 0.00 | 0.00 | 0.00 | 86 | 1018.5 |
| 20260906143426 | 73 | 157 | 4.0 | 9.0 | 0.00 | 0.00 | 0.00 | 86 | 1018.5 |
| 20260906142927 | 73 | 156 | 3.0 | 8.0 | 0.00 | 0.00 | 0.00 | 87 | 1018.4 |
| 20260906142426 | 72 | 119 | 3.0 | 8.0 | 0.00 | 0.00 | 0.00 | 87 | 1018.5 |
| 20260906141927 | 72 | 146 | 3.0 | 7.0 | 0.00 | 0.00 | 0.00 | 88 | 1018.5 |
| 20260906141425 | 72 | 150 | 2.0 | 6.0 | 0.00 | 0.00 | 0.00 | 88 | 1018.6 |
| 20260906140925 | 72 | 132 | 2.0 | 6.0 | 0.00 | 0.00 | 0.00 | 89 | 1018.6 |
| 20260906140426 | 71 | 146 | 3.0 | 8.0 | 0.00 | 0.00 | 0.00 | 89 | 1018.5 |
| 20260906135926 | 71 | 134 | 3.0 | 8.0 | 0.00 | 0.00 | 0.00 | 89 | 1018.4 |
| 20260906135426 | 71 | 155 | 3.0 | 8.0 | 0.00 | 0.00 | 0.00 | 90 | 1018.4 |
| 20260906135148 | 71 | 152 | 2.0 | 6.0 | 0.00 | 0.00 | 0.00 | 91 | 1018.4 |
| 20260906134426 | 71 | 138 | 2.0 | 6.0 | 0.00 | 0.00 | 0.00 | 92 | 1018.4 |
| 20260906133926 | 71 | 155 | 2.0 | 7.0 | 0.00 | 0.00 | 0.00 | 92 | 1018.3 |
| 20260906133426 | 71 | 165 | 2.0 | 7.0 | 0.00 | 0.00 | 0.00 | 93 | 1018.2 |
| 20260906132927 | 70 | 172 | 2.0 | 6.0 | 0.00 | 0.00 | 0.00 | 93 | 1018.2 |
| 20260906132427 | 70 | 167 | 2.0 | 7.0 | 0.00 | 0.00 | 0.00 | 94 | 1018.2 |
| 20260906131926 | 70 | 132 | 2.0 | 7.0 | 0.00 | 0.00 | 0.00 | 94 | 1018.1 |
| 20260906131426 | 69 | 173 | 1.0 | 5.0 | 0.00 | 0.00 | 0.00 | 94 | 1018.0 |
| 20260906130925 | 69 | 114 | 1.0 | 7.0 | 0.00 | 0.00 | 0.00 | 94 | 1017.9 |
| 20260906130438 | 69 | 128 | 2.0 | 7.0 | 0.00 | 0.00 | 0.00 | 94 | 1018.0 |
| 20260906125925 | 69 | 102 | 2.0 | 8.0 | 0.00 | 0.00 | 0.00 | 94 | 1018.0 |
| 20260906125427 | 69 | 100 | 2.0 | 8.0 | 0.00 | 0.00 | 0.00 | 94 | 1017.9 |
| 20260906124925 | 69 | 163 | 2.0 | 6.0 | 0.00 | 0.00 | 0.00 | 94 | 1017.9 |
| 20260906124425 | 69 | 143 | 2.0 | 6.0 | 0.00 | 0.00 | 0.00 | 94 | 1017.9 |
| 20260906123926 | 69 | 65 | 2.0 | 5.0 | 0.00 | 0.00 | 0.00 | 94 | 1017.9 |
| 20260906123422 | 69 | 84 | 1.0 | 6.0 | 0.00 | 0.00 | 0.00 | 94 | 1017.9 |
| 20260906122923 | 69 | 142 | 1.0 | 6.0 | 0.00 | 0.00 | 0.00 | 94 | 1017.9 |
| 20260906122420 | 69 | 86 | 1.0 | 3.0 | 0.00 | 0.00 | 0.00 | 93 | 1017.9 |
| 20260906121920 | 69 | 121 | 1.0 | 4.0 | 0.00 | 0.00 | 0.00 | 93 | 1017.9 |
| 20260906121420 | 69 | 126 | 1.0 | 4.0 | 0.00 | 0.00 | 0.00 | 93 | 1017.8 |
| 20260906120920 | 69 | 123 | 1.0 | 3.0 | 0.00 | 0.00 | 0.00 | 93 | 1017.8 |
| 20260906120642 | 69 | 143 | 0.0 | 2.0 | 0.00 | 0.00 | 0.00 | 93 | 1017.7 |
| 20260906120142 | 69 | 143 | 0.0 | 3.0 | 0.00 | 0.00 | 0.00 | 93 | 1017.6 |
| 20260906115414 | 69 | 140 | 1.0 | 3.0 | 0.00 | 0.00 | 0.00 | 93 | 1017.6 |
| 20260906114913 | 69 | 142 | 0.0 | 3.0 | 0.00 | 0.00 | 0.00 | 93 | 1017.6 |
| 20260906114412 | 69 | 144 | 0.0 | 3.0 | 0.00 | 0.00 | 0.00 | 93 | 1017.8 |
| 20260906113911 | 69 | 148 | 0.0 | 1.0 | 0.00 | 0.00 | 0.00 | 93 | 1017.7 |
| 20260906113851 | 69 | 147 | 0.0 | 4.0 | 0.00 | 0.00 | 0.00 | 93 | 1017.4 |
| 20260906112911 | 69 | 147 | 0.0 | 4.0 | 0.00 | 0.00 | 0.00 | 92 | 1017.4 |
| 20260906112407 | 69 | 143 | 1.0 | 3.0 | 0.00 | 0.00 | 0.00 | 92 | 1017.3 |
| 20260906112357 | 69 | 143 | 0.0 | 3.0 | 0.00 | 0.00 | 0.00 | 92 | 1017.3 |
| 20260906111409 | 69 | 144 | 0.0 | 3.0 | 0.00 | 0.00 | 0.00 | 92 | 1017.3 |
| 20260906111347 | 69 | 154 | 1.0 | 3.0 | 0.00 | 0.00 | 0.00 | 92 | 1017.2 |
| 20260906110421 | 69 | 163 | 1.0 | 3.0 | 0.00 | 0.00 | 0.00 | 92 | 1017.1 |
| 20260906105906 | 70 | 163 | 0.0 | 2.0 | 0.00 | 0.00 | 0.00 | 92 | 1017.1 |
| 20260906105407 | 70 | 161 | 1.0 | 2.0 | 0.00 | 0.00 | 0.00 | 92 | 1017.1 |
| 20260906104905 | 70 | 161 | 1.0 | 2.0 | 0.00 | 0.00 | 0.00 | 92 | 1017.2 |
| 20260906104403 | 70 | 162 | 0.0 | 2.0 | 0.00 | 0.00 | 0.00 | 92 | 1017.1 |
| 20260906103904 | 70 | 163 | 0.0 | 1.0 | 0.00 | 0.00 | 0.00 | 92 | 1017.1 |
| 20260906103403 | 70 | 162 | 0.0 | 2.0 | 0.00 | 0.00 | 0.00 | 92 | 1017.1 |
| 20260906102901 | 70 | 162 | 0.0 | 2.0 | 0.00 | 0.00 | 0.00 | 91 | 1017.1 |
| 20260906102358 | 70 | 162 | 1.0 | 4.0 | 0.00 | 0.00 | 0.00 | 91 | 1017.0 |
| 20260906101855 | 70 | 162 | 1.0 | 4.0 | 0.00 | 0.00 | 0.00 | 91 | 1017.1 |
| 20260906101616 | 70 | 163 | 0.0 | 2.0 | 0.00 | 0.00 | 0.00 | 91 | 1017.1 |
| 20260906101117 | 71 | 164 | 0.0 | 4.0 | 0.00 | 0.00 | 0.00 | 91 | 1017.0 |
| 20260906100837 | 71 | 159 | 1.0 | 4.0 | 0.00 | 0.00 | 0.00 | 91 | 1016.9 |
| 20260906095849 | 71 | 157 | 2.0 | 6.0 | 0.00 | 0.00 | 0.00 | 91 | 1016.9 |
| 20260906095347 | 71 | 143 | 1.0 | 6.0 | 0.00 | 0.00 | 0.00 | 91 | 1016.7 |
| 20260906094849 | 71 | 161 | 1.0 | 5.0 | 0.00 | 0.00 | 0.00 | 91 | 1016.5 |
| 20260906094346 | 71 | 163 | 1.0 | 8.0 | 0.00 | 0.00 | 0.00 | 91 | 1016.3 |
| 20260906093844 | 71 | 197 | 2.0 | 8.0 | 0.00 | 0.00 | 0.00 | 91 | 1016.3 |
| 20260906093603 | 71 | 132 | 2.0 | 7.0 | 0.00 | 0.00 | 0.00 | 90 | 1016.3 |
| 20260906092844 | 71 | 139 | 2.0 | 6.0 | 0.00 | 0.00 | 0.00 | 90 | 1016.2 |
| 20260906092344 | 71 | 143 | 3.0 | 6.0 | 0.00 | 0.00 | 0.00 | 90 | 1016.2 |
| 20260906091843 | 71 | 109 | 2.0 | 5.0 | 0.00 | 0.00 | 0.00 | 90 | 1016.2 |
| 20260906091343 | 71 | 155 | 2.0 | 6.0 | 0.00 | 0.00 | 0.00 | 90 | 1016.3 |
| 20260906090840 | 71 | 164 | 2.0 | 7.0 | 0.00 | 0.00 | 0.00 | 90 | 1016.3 |
| 20260906090341 | 71 | 153 | 2.0 | 7.0 | 0.00 | 0.00 | 0.00 | 90 | 1016.3 |
| 20260906090059 | 71 | 173 | 1.0 | 7.0 | 0.00 | 0.00 | 0.00 | 90 | 1016.3 |
| 20260906085336 | 71 | 103 | 1.0 | 7.0 | 0.00 | 0.00 | 0.00 | 90 | 1016.4 |
| 20260906084835 | 71 | 85 | 2.0 | 7.0 | 0.00 | 0.00 | 0.00 | 89 | 1016.2 |
| 20260906084556 | 71 | 161 | 2.0 | 5.0 | 0.00 | 0.00 | 0.00 | 89 | 1016.2 |
| 20260906083834 | 71 | 195 | 2.0 | 9.0 | 0.00 | 0.00 | 0.00 | 89 | 1016.2 |
| 20260906083335 | 71 | 90 | 2.0 | 9.0 | 0.00 | 0.00 | 0.00 | 89 | 1016.2 |
| 20260906082834 | 71 | 79 | 1.0 | 6.0 | 0.00 | 0.00 | 0.00 | 89 | 1016.2 |
| 20260906082553 | 71 | 74 | 1.0 | 5.0 | 0.00 | 0.00 | 0.00 | 88 | 1016.2 |
| 20260906081833 | 71 | 114 | 2.0 | 9.0 | 0.00 | 0.00 | 0.00 | 88 | 1016.3 |
| 20260906081333 | 71 | 92 | 2.0 | 9.0 | 0.00 | 0.00 | 0.00 | 88 | 1016.3 |
| 20260906080833 | 71 | 85 | 2.0 | 8.0 | 0.00 | 0.00 | 0.00 | 88 | 1016.3 |
| 20260906080335 | 72 | 98 | 2.0 | 8.0 | 0.00 | 0.00 | 0.00 | 88 | 1016.2 |
| 20260906075834 | 72 | 75 | 2.0 | 8.0 | 0.00 | 0.00 | 0.00 | 88 | 1016.2 |
| 20260906075328 | 72 | 97 | 2.0 | 7.0 | 0.00 | 0.00 | 0.00 | 88 | 1016.1 |
| 20260906074829 | 72 | 98 | 2.0 | 7.0 | 0.00 | 0.00 | 0.00 | 88 | 1016.2 |
| 20260906074330 | 72 | 59 | 1.0 | 5.0 | 0.00 | 0.00 | 0.00 | 88 | 1016.3 |
| 20260906073829 | 72 | 94 | 1.0 | 4.0 | 0.00 | 0.00 | 0.00 | 88 | 1016.3 |
| 20260906073330 | 72 | 91 | 1.0 | 6.0 | 0.00 | 0.00 | 0.00 | 88 | 1016.4 |
| 20260906073045 | 72 | 98 | 1.0 | 6.0 | 0.00 | 0.00 | 0.00 | 88 | 1016.4 |
| 20260906072328 | 72 | 99 | 1.0 | 4.0 | 0.00 | 0.00 | 0.00 | 88 | 1016.4 |
| 20260906071826 | 72 | 160 | 1.0 | 4.0 | 0.00 | 0.00 | 0.00 | 87 | 1016.4 |
| 20260906071324 | 72 | 108 | 1.0 | 3.0 | 0.00 | 0.00 | 0.00 | 87 | 1016.4 |
| 20260906070824 | 72 | 109 | 1.0 | 3.0 | 0.00 | 0.00 | 0.00 | 87 | 1016.5 |
| 20260906070321 | 73 | 111 | 1.0 | 2.0 | 0.00 | 0.00 | 0.00 | 87 | 1016.7 |
| 20260906070047 | 73 | 109 | 1.0 | 4.0 | 0.00 | 0.00 | 0.00 | 87 | 1016.7 |
| 20260906065319 | 73 | 74 | 1.0 | 4.0 | 0.00 | 0.00 | 0.00 | 87 | 1016.7 |
| 20260906064819 | 73 | 132 | 1.0 | 3.0 | 0.00 | 0.00 | 0.00 | 87 | 1016.6 |
| 20260906064319 | 73 | 132 | 1.0 | 6.0 | 0.00 | 0.00 | 0.00 | 87 | 1016.6 |
| 20260906063817 | 73 | 92 | 1.0 | 6.0 | 0.00 | 0.00 | 0.00 | 87 | 1016.5 |
| 20260906063311 | 73 | 146 | 1.0 | 3.0 | 0.00 | 0.00 | 0.00 | 87 | 1016.6 |
| 20260906062806 | 73 | 153 | 0.0 | 3.0 | 0.00 | 0.00 | 0.00 | 86 | 1016.6 |
| 20260906062306 | 73 | 95 | 0.0 | 3.0 | 0.00 | 0.00 | 0.00 | 86 | 1016.7 |
| 20260906061804 | 73 | 92 | 1.0 | 3.0 | 0.00 | 0.00 | 0.00 | 86 | 1016.6 |
| 20260906061303 | 73 | 86 | 1.0 | 3.0 | 0.00 | 0.00 | 0.00 | 86 | 1016.6 |
| 20260906060759 | 73 | 84 | 1.0 | 5.0 | 0.00 | 0.00 | 0.00 | 86 | 1016.8 |
| 20260906060300 | 73 | 80 | 1.0 | 5.0 | 0.00 | 0.00 | 0.00 | 86 | 1016.7 |
| 20260906055759 | 73 | 117 | 0.0 | 3.0 | 0.00 | 0.00 | 0.00 | 86 | 1016.7 |
| 20260906055259 | 73 | 130 | 0.0 | 2.0 | 0.00 | 0.00 | 0.00 | 86 | 1016.6 |
| 20260906054756 | 73 | 130 | 0.0 | 2.0 | 0.00 | 0.00 | 0.00 | 86 | 1016.6 |
| 20260906054256 | 73 | 129 | 0.0 | 2.0 | 0.00 | 0.00 | 0.00 | 86 | 1016.6 |
| 20260906053756 | 73 | 129 | 0.0 | 2.0 | 0.00 | 0.00 | 0.00 | 86 | 1016.6 |
| 20260906053517 | 73 | 126 | 0.0 | 1.0 | 0.00 | 0.00 | 0.00 | 86 | 1016.5 |
| 20260906052750 | 73 | 128 | 0.0 | 2.0 | 0.00 | 0.00 | 0.00 | 86 | 1016.5 |
| 20260906052249 | 73 | 159 | 0.0 | 2.0 | 0.00 | 0.00 | 0.00 | 86 | 1016.6 |
| 20260906051752 | 73 | 158 | 0.0 | 1.0 | 0.00 | 0.00 | 0.00 | 86 | 1016.6 |
| 20260906051509 | 73 | 158 | 0.0 | 0.0 | 0.00 | 0.00 | 0.00 | 85 | 1016.7 |
| 20260906050749 | 73 | 158 | 0.0 | 1.0 | 0.00 | 0.00 | 0.00 | 85 | 1016.8 |
| 20260906050249 | 73 | 158 | 0.0 | 1.0 | 0.00 | 0.00 | 0.00 | 85 | 1016.8 |
| 20260906045744 | 73 | 158 | 0.0 | 1.0 | 0.00 | 0.00 | 0.00 | 85 | 1016.8 |
| 20260906045243 | 73 | 158 | 0.0 | 1.0 | 0.00 | 0.00 | 0.00 | 85 | 1016.7 |
| 20260906044743 | 73 | 158 | 0.0 | 1.0 | 0.00 | 0.00 | 0.00 | 85 | 1016.7 |
| 20260906044243 | 73 | 158 | 0.0 | 1.0 | 0.00 | 0.00 | 0.00 | 85 | 1016.8 |
| 20260906043743 | 73 | 158 | 0.0 | 0.0 | 0.00 | 0.00 | 0.00 | 85 | 1016.9 |
| 20260906043502 | 73 | 158 | 0.0 | 1.0 | 0.00 | 0.00 | 0.00 | 84 | 1016.9 |
| 20260906042742 | 73 | 158 | 0.0 | 1.0 | 0.00 | 0.00 | 0.00 | 84 | 1017.0 |
| 20260906042242 | 74 | 158 | 0.0 | 0.0 | 0.00 | 0.00 | 0.00 | 84 | 1017.0 |
| 20260906041744 | 74 | 158 | 0.0 | 0.0 | 0.00 | 0.00 | 0.00 | 84 | 1017.0 |
| 20260906041255 | 74 | 158 | 0.0 | 0.0 | 0.00 | 0.00 | 0.00 | 84 | 1016.9 |
| 20260906040755 | 74 | 158 | 0.0 | 0.0 | 0.00 | 0.00 | 0.00 | 84 | 1016.9 |
| 20260906040243 | 74 | 158 | 0.0 | 0.0 | 0.00 | 0.00 | 0.00 | 84 | 1017.0 |
| 20260906035743 | 74 | 158 | 0.0 | 0.0 | 0.00 | 0.00 | 0.00 | 83 | 1017.0 |
| 20260906035242 | 74 | 158 | 0.0 | 0.0 | 0.00 | 0.00 | 0.00 | 83 | 1017.1 |
| 20260906034745 | 74 | 158 | 0.0 | 0.0 | 0.00 | 0.00 | 0.00 | 83 | 1017.1 |
| 20260906034245 | 74 | 158 | 0.0 | 0.0 | 0.00 | 0.00 | 0.00 | 82 | 1017.1 |
| 20260906033744 | 74 | 158 | 0.0 | 0.0 | 0.00 | 0.00 | 0.00 | 82 | 1017.0 |
| 20260906033257 | 74 | 158 | 0.0 | 0.0 | 0.00 | 0.00 | 0.00 | 81 | 1017.0 |
| 20260906032743 | 75 | 158 | 0.0 | 0.0 | 0.00 | 0.00 | 0.00 | 81 | 1017.0 |
| 20260906032243 | 75 | 158 | 0.0 | 0.0 | 0.00 | 0.00 | 0.00 | 81 | 1016.9 |
| 20260906031744 | 75 | 158 | 0.0 | 0.0 | 0.00 | 0.00 | 0.00 | 80 | 1017.0 |
| 20260906031243 | 75 | 158 | 0.0 | 0.0 | 0.00 | 0.00 | 0.00 | 80 | 1017.0 |
| 20260906030742 | 75 | 158 | 0.0 | 0.0 | 0.00 | 0.00 | 0.00 | 80 | 1017.0 |
| 20260906030255 | 76 | 158 | 0.0 | 0.0 | 0.00 | 0.00 | 0.00 | 79 | 1017.1 |
| 20260906025742 | 76 | 158 | 0.0 | 0.0 | 0.00 | 0.00 | 0.00 | 79 | 1017.1 |
| 20260906025242 | 76 | 158 | 0.0 | 0.0 | 0.00 | 0.00 | 0.00 | 79 | 1017.1 |
| 20260906024744 | 76 | 158 | 0.0 | 0.0 | 0.00 | 0.00 | 0.00 | 79 | 1017.2 |
| 20260906024243 | 76 | 158 | 0.0 | 0.0 | 0.00 | 0.00 | 0.00 | 78 | 1017.1 |
| 20260906023744 | 76 | 158 | 0.0 | 1.0 | 0.00 | 0.00 | 0.00 | 78 | 1017.0 |
| 20260906023240 | 76 | 158 | 0.0 | 1.0 | 0.00 | 0.00 | 0.00 | 77 | 1016.8 |
| 20260906023232 | 76 | 158 | 0.0 | 2.0 | 0.00 | 0.00 | 0.00 | 77 | 1016.7 |
| 20260906022240 | 76 | 158 | 1.0 | 2.0 | 0.00 | 0.00 | 0.00 | 77 | 1016.6 |
| 20260906021740 | 76 | 158 | 1.0 | 2.0 | 0.00 | 0.00 | 0.00 | 77 | 1016.4 |
| 20260906021241 | 76 | 158 | 1.0 | 3.0 | 0.00 | 0.00 | 0.00 | 77 | 1016.5 |
| 20260906020741 | 76 | 158 | 1.0 | 4.0 | 0.00 | 0.00 | 0.00 | 76 | 1016.4 |
| 20260906020239 | 76 | 158 | 1.0 | 4.0 | 0.00 | 0.00 | 0.00 | 76 | 1016.3 |
| 20260906015742 | 77 | 148 | 0.0 | 2.0 | 0.00 | 0.00 | 0.00 | 75 | 1016.2 |
| 20260906015238 | 77 | 155 | 1.0 | 3.0 | 0.00 | 0.00 | 0.00 | 75 | 1016.0 |
| 20260906014738 | 77 | 155 | 1.0 | 7.0 | 0.00 | 0.00 | 0.00 | 75 | 1015.8 |
| 20260906014241 | 77 | 136 | 2.0 | 8.0 | 0.00 | 0.00 | 0.00 | 75 | 1015.6 |
| 20260906013738 | 78 | 153 | 3.0 | 8.0 | 0.00 | 0.00 | 0.00 | 75 | 1015.4 |
| 20260906013236 | 78 | 141 | 3.0 | 6.0 | 0.00 | 0.00 | 0.00 | 75 | 1015.4 |
| 20260906012938 | 78 | 145 | 4.0 | 9.0 | 0.00 | 0.00 | 0.00 | 74 | 1015.2 |
| 20260906012834 | 78 | 159 | 3.0 | 9.0 | 0.00 | 0.00 | 0.00 | 74 | 1015.3 |
| 20260906011736 | 79 | 123 | 4.0 | 8.0 | 0.00 | 0.00 | 0.00 | 74 | 1015.0 |
| 20260906011238 | 79 | 143 | 3.0 | 9.0 | 0.00 | 0.00 | 0.00 | 73 | 1015.0 |
| 20260906010739 | 80 | 148 | 3.0 | 9.0 | 0.00 | 0.00 | 0.00 | 73 | 1015.0 |
| 20260906010236 | 80 | 146 | 3.0 | 6.0 | 0.00 | 0.00 | 0.00 | 72 | 1015.0 |
| 20260906005736 | 80 | 141 | 3.0 | 8.0 | 0.00 | 0.00 | 0.00 | 71 | 1015.0 |
| 20260906005235 | 80 | 157 | 3.0 | 8.0 | 0.00 | 0.00 | 0.00 | 69 | 1014.8 |
| 20260906004735 | 81 | 148 | 3.0 | 8.0 | 0.00 | 0.00 | 0.00 | 69 | 1014.7 |
| 20260906004235 | 81 | 157 | 2.0 | 7.0 | 0.00 | 0.00 | 0.00 | 68 | 1014.5 |
| 20260906003734 | 81 | 115 | 3.0 | 7.0 | 0.00 | 0.00 | 0.00 | 67 | 1014.4 |
| 20260906003246 | 82 | 117 | 3.0 | 6.0 | 0.00 | 0.00 | 0.00 | 66 | 1014.3 |
| 20260906002936 | 82 | 143 | 2.0 | 6.0 | 0.00 | 0.00 | 0.00 | 65 | 1014.2 |
| 20260906002828 | 82 | 145 | 3.0 | 5.0 | 0.00 | 0.00 | 0.00 | 66 | 1014.3 |
| 20260906001729 | 83 | 49 | 2.0 | 6.0 | 0.00 | 0.00 | 0.00 | 64 | 1014.4 |
| 20260906001228 | 83 | 144 | 2.0 | 7.0 | 0.00 | 0.00 | 0.00 | 64 | 1014.6 |
| 20260906000728 | 83 | 84 | 3.0 | 7.0 | 0.00 | 0.00 | 0.00 | 63 | 1014.4 |
| 20260906000455 | 83 | 73 | 3.0 | 10.0 | 0.00 | 0.00 | 0.00 | 62 | 1014.5 |
| 20260905235729 | 84 | 60 | 3.0 | 10.0 | 0.00 | 0.00 | 0.00 | 62 | 1014.4 |
| 20260905235226 | 84 | 159 | 3.0 | 9.0 | 0.00 | 0.00 | 0.00 | 61 | 1014.4 |
| 20260905234726 | 84 | 82 | 3.0 | 9.0 | 0.00 | 0.00 | 0.00 | 61 | 1014.3 |
| 20260905234445 | 84 | 160 | 3.0 | 8.0 | 0.00 | 0.00 | 0.00 | 60 | 1014.2 |
| 20260905233725 | 84 | 165 | 3.0 | 10.0 | 0.00 | 0.00 | 0.00 | 60 | 1014.1 |
| 20260905233225 | 85 | 75 | 4.0 | 11.0 | 0.00 | 0.00 | 0.00 | 60 | 1014.0 |
| 20260905232724 | 85 | 17 | 4.0 | 11.0 | 0.00 | 0.00 | 0.00 | 61 | 1014.0 |
| 20260905232223 | 85 | 81 | 4.0 | 10.0 | 0.00 | 0.00 | 0.00 | 60 | 1013.9 |
| 20260905231724 | 85 | 104 | 4.0 | 13.0 | 0.00 | 0.00 | 0.00 | 60 | 1014.0 |
| 20260905231224 | 85 | 50 | 4.0 | 13.0 | 0.00 | 0.00 | 0.00 | 60 | 1013.9 |
| 20260905230942 | 85 | 71 | 3.0 | 11.0 | 0.00 | 0.00 | 0.00 | 59 | 1013.9 |
| 20260905230220 | 85 | 116 | 3.0 | 8.0 | 0.00 | 0.00 | 0.00 | 60 | 1013.9 |
| 20260905225724 | 85 | 53 | 3.0 | 11.0 | 0.00 | 0.00 | 0.00 | 60 | 1013.7 |
| 20260905225220 | 85 | 123 | 3.0 | 11.0 | 0.00 | 0.00 | 0.00 | 60 | 1013.6 |
| 20260905224720 | 85 | 68 | 3.0 | 10.0 | 0.00 | 0.00 | 0.00 | 60 | 1013.6 |
| 20260905224221 | 85 | 87 | 3.0 | 10.0 | 0.00 | 0.00 | 0.00 | 60 | 1013.6 |
| 20260905223718 | 86 | 73 | 4.0 | 11.0 | 0.00 | 0.00 | 0.00 | 61 | 1013.7 |
| 20260905223447 | 86 | 101 | 3.0 | 11.0 | 0.00 | 0.00 | 0.00 | 60 | 1013.9 |
| 20260905222715 | 86 | 98 | 2.0 | 9.0 | 0.00 | 0.00 | 0.00 | 61 | 1014.0 |
| 20260905222212 | 86 | 269 | 3.0 | 9.0 | 0.00 | 0.00 | 0.00 | 61 | 1014.0 |
| 20260905221658 | 86 | 117 | 3.0 | 9.0 | 0.00 | 0.00 | 0.00 | 60 | 1014.0 |
| 20260905221152 | 86 | 175 | 2.0 | 5.0 | 0.00 | 0.00 | 0.00 | 61 | 1014.0 |
| 20260905220917 | 86 | 104 | 2.0 | 10.0 | 0.00 | 0.00 | 0.00 | 60 | 1014.0 |
| 20260905220150 | 86 | 44 | 3.0 | 10.0 | 0.00 | 0.00 | 0.00 | 59 | 1013.9 |
| 20260905215650 | 86 | 70 | 3.0 | 9.0 | 0.00 | 0.00 | 0.00 | 59 | 1013.7 |
| 20260905215147 | 86 | 313 | 3.0 | 9.0 | 0.00 | 0.00 | 0.00 | 58 | 1013.7 |
| 20260905214905 | 86 | 74 | 3.0 | 13.0 | 0.00 | 0.00 | 0.00 | 58 | 1013.9 |
| 20260905214143 | 86 | 26 | 4.0 | 13.0 | 0.00 | 0.00 | 0.00 | 57 | 1013.9 |
| 20260905213642 | 86 | 88 | 3.0 | 11.0 | 0.00 | 0.00 | 0.00 | 59 | 1014.0 |
| 20260905213141 | 86 | 80 | 4.0 | 14.0 | 0.00 | 0.00 | 0.00 | 59 | 1014.0 |
| 20260905212640 | 86 | 309 | 4.0 | 14.0 | 0.00 | 0.00 | 0.00 | 59 | 1014.1 |
| 20260905212142 | 86 | 123 | 3.0 | 9.0 | 0.00 | 0.00 | 0.00 | 60 | 1014.1 |
| 20260905211640 | 86 | 324 | 3.0 | 11.0 | 0.00 | 0.00 | 0.00 | 61 | 1014.0 |
| 20260905211138 | 85 | 265 | 3.0 | 11.0 | 0.00 | 0.00 | 0.00 | 61 | 1013.9 |
| 20260905210640 | 85 | 84 | 4.0 | 13.0 | 0.00 | 0.00 | 0.00 | 62 | 1014.0 |
| 20260905210139 | 85 | 346 | 5.0 | 13.0 | 0.00 | 0.00 | 0.00 | 62 | 1014.3 |
| 20260905205637 | 85 | 74 | 6.0 | 13.0 | 0.00 | 0.00 | 0.00 | 62 | 1014.5 |
| 20260905205406 | 85 | 88 | 4.0 | 11.0 | 0.00 | 0.00 | 0.00 | 63 | 1014.8 |
| 20260905204628 | 85 | 71 | 3.0 | 11.0 | 0.00 | 0.00 | 0.00 | 63 | 1014.9 |
| 20260905204124 | 85 | 53 | 2.0 | 8.0 | 0.00 | 0.00 | 0.00 | 65 | 1015.0 |
| 20260905203622 | 85 | 12 | 2.0 | 7.0 | 0.00 | 0.00 | 0.00 | 64 | 1015.1 |
| 20260905203120 | 84 | 114 | 2.0 | 7.0 | 0.00 | 0.00 | 0.00 | 65 | 1015.2 |
| 20260905202619 | 84 | 88 | 2.0 | 8.0 | 0.00 | 0.00 | 0.00 | 66 | 1015.2 |
| 20260905202116 | 84 | 115 | 2.0 | 8.0 | 0.00 | 0.00 | 0.00 | 66 | 1015.2 |
| 20260905201618 | 84 | 157 | 2.0 | 9.0 | 0.00 | 0.00 | 0.00 | 65 | 1015.3 |
| 20260905201117 | 84 | 92 | 2.0 | 9.0 | 0.00 | 0.00 | 0.00 | 65 | 1015.5 |
| 20260905200614 | 83 | 274 | 1.0 | 6.0 | 0.00 | 0.00 | 0.00 | 68 | 1015.6 |
| 20260905200335 | 83 | 167 | 2.0 | 6.0 | 0.00 | 0.00 | 0.00 | 68 | 1015.8 |
| 20260905195615 | 83 | 339 | 2.0 | 8.0 | 0.00 | 0.00 | 0.00 | 66 | 1015.8 |
| 20260905195112 | 84 | 165 | 2.0 | 8.0 | 0.00 | 0.00 | 0.00 | 66 | 1015.8 |
| 20260905195055 | 83 | 107 | 2.0 | 6.0 | 0.00 | 0.00 | 0.00 | 69 | 1015.9 |
| 20260905194112 | 83 | 318 | 2.0 | 7.0 | 0.00 | 0.00 | 0.00 | 67 | 1016.0 |
| 20260905193614 | 83 | 87 | 2.0 | 7.0 | 0.00 | 0.00 | 0.00 | 67 | 1016.0 |
| 20260905193112 | 82 | 202 | 2.0 | 5.0 | 0.00 | 0.00 | 0.00 | 70 | 1016.0 |
| 20260905192611 | 82 | 161 | 3.0 | 6.0 | 0.00 | 0.00 | 0.00 | 68 | 1016.1 |
| 20260905192105 | 82 | 189 | 2.0 | 6.0 | 0.00 | 0.00 | 0.00 | 69 | 1016.1 |
| 20260905191824 | 82 | 79 | 1.0 | 4.0 | 0.00 | 0.00 | 0.00 | 69 | 1016.0 |
| 20260905191054 | 82 | 322 | 2.0 | 6.0 | 0.00 | 0.00 | 0.00 | 69 | 1016.0 |
| 20260905190554 | 82 | 9 | 1.0 | 6.0 | 0.00 | 0.00 | 0.00 | 69 | 1016.1 |
| 20260905190107 | 82 | 153 | 1.0 | 4.0 | 0.00 | 0.00 | 0.00 | 69 | 1016.0 |
| 20260905185554 | 82 | 159 | 2.0 | 6.0 | 0.00 | 0.00 | 0.00 | 70 | 1016.1 |
| 20260905185058 | 81 | 169 | 2.0 | 6.0 | 0.00 | 0.00 | 0.00 | 71 | 1016.2 |
| 20260905184554 | 81 | 248 | 2.0 | 8.0 | 0.00 | 0.00 | 0.00 | 70 | 1016.1 |
| 20260905184055 | 81 | 84 | 2.0 | 8.0 | 0.00 | 0.00 | 0.00 | 73 | 1016.1 |
| 20260905183554 | 80 | 314 | 2.0 | 7.0 | 0.00 | 0.00 | 0.00 | 73 | 1016.2 |
| 20260905183052 | 80 | 123 | 1.0 | 7.0 | 0.00 | 0.00 | 0.00 | 74 | 1016.2 |
| 20260905182550 | 80 | 132 | 1.0 | 2.0 | 0.00 | 0.00 | 0.00 | 75 | 1016.2 |
| 20260905182048 | 79 | 216 | 1.0 | 5.0 | 0.00 | 0.00 | 0.00 | 76 | 1016.3 |
| 20260905181546 | 79 | 325 | 1.0 | 5.0 | 0.00 | 0.00 | 0.00 | 76 | 1016.3 |
| 20260905181047 | 79 | 329 | 1.0 | 5.0 | 0.00 | 0.00 | 0.00 | 76 | 1016.3 |
| 20260905180547 | 78 | 108 | 2.0 | 7.0 | 0.00 | 0.00 | 0.00 | 78 | 1016.4 |
| 20260905180044 | 78 | 178 | 2.0 | 7.0 | 0.00 | 0.00 | 0.00 | 77 | 1016.4 |
| 20260905175539 | 78 | 145 | 1.0 | 3.0 | 0.00 | 0.00 | 0.00 | 79 | 1016.6 |
| 20260905175034 | 78 | 60 | 1.0 | 6.0 | 0.00 | 0.00 | 0.00 | 78 | 1016.5 |
| 20260905174534 | 78 | 88 | 2.0 | 6.0 | 0.00 | 0.00 | 0.00 | 77 | 1016.6 |
| 20260905174035 | 79 | 57 | 2.0 | 5.0 | 0.00 | 0.00 | 0.00 | 76 | 1016.8 |
| 20260905173534 | 79 | 130 | 2.0 | 4.0 | 0.00 | 0.00 | 0.00 | 78 | 1016.8 |
| 20260905173254 | 78 | 157 | 2.0 | 6.0 | 0.00 | 0.00 | 0.00 | 78 | 1016.8 |
| 20260905172534 | 78 | 240 | 2.0 | 6.0 | 0.00 | 0.00 | 0.00 | 80 | 1016.9 |
| 20260905172033 | 77 | 161 | 2.0 | 5.0 | 0.00 | 0.00 | 0.00 | 80 | 1016.9 |
| 20260905171756 | 77 | 146 | 2.0 | 6.0 | 0.00 | 0.00 | 0.00 | 80 | 1016.9 |
| 20260905171033 | 77 | 158 | 2.0 | 6.0 | 0.00 | 0.00 | 0.00 | 80 | 1016.9 |
| 20260905170535 | 76 | 67 | 2.0 | 6.0 | 0.00 | 0.00 | 0.00 | 81 | 1016.9 |
| 20260905170518 | 76 | 76 | 3.0 | 8.0 | 0.00 | 0.00 | 0.00 | 82 | 1017.0 |
| 20260905165546 | 76 | 142 | 2.0 | 8.0 | 0.00 | 0.00 | 0.00 | 81 | 1017.0 |